sat.trackr.live / text

‹ back to catalog

STARLINK-5285

NORAD 55296 · 2023-010AD

PAYLOAD ACTIVE UNKNOWN

§ Identity

Operator
Country
US
Launch date
2023-01-19
Launch site
AFWTR
Launch vehicle
Mass (kg)
RCS (m²)

Purposes: comms

External: N2YO · Heavens-Above · Gunter

§ Orbital elements

Epoch: 2026-09-20T23:21:34.352064Z

Period
96.11 min
Inclination
69.9978°
Eccentricity
0.0003683
Mean motion
14.98317975 rev/d
Perigee alt
569.5 km
Apogee alt
574.7 km
Semi-major
6,950.2 km
B*
3.0727e-5
RAAN
251.9558°
Arg perigee
267.8224°
Mean anomaly
92.2514°
Rev number
20,340

§ Raw data

STARLINK-52851 55296U 23010AD  26263.97331426  .00000273  00000+0  30727-4 0  99912 55296  69.9978 251.9558 0003683 267.8224  92.2514 14.98317975203409

JSON: /api/v1/satellites/55296 · /tle

For live sub-satellite position, see the globe view (requires WebGL).

§ Visibility from observer

Set your observer location to see the next 7 days of passes ≥ 10°. The values pass through the URL so the page stays shareable.

No JS? Fill the form by hand. The geolocation button needs JavaScript.